Flag for U.S.A. Weather past 2 weeks in Victoria, Texas, U.S.A.

Now
100 °F

Broken clouds.


Feels Like: 107 °F
Forecast: 75 / 98 °F
Wind: 14 mph from Southeast

Location: Victoria Regional Airport

Current Time: Jul 29, 2014 at 6:06:23 PM

Latest Report: Jul 29, 2014 at 4:51 PM


Visibility: 10 mi

Pressure: 29.99 "Hg

Humidity: 37%

Dew point: 69 °F

Location of VictoriaLocation

Historic Weather in Victoria — Graph

°F

Victoria temperature yesterday

Maximum temperature yesterday: 100 °F (at 3:51 PM)
Minimum temperature yesterday: 76 °F (at 2:51 AM)
Average temperature yesterday: 87 °F

Past Weeks' High & Low Weather Summary

 TemperatureHumidityPressure
High100 °F (Jul 23, 3:51 PM)100% (Jul 23, 7:51 AM)30.13 "Hg (Jul 23, 7:51 AM)
Low74 °F (Jul 22, 4:51 AM)33% (Jul 29, 1:51 PM)29.80 "Hg (Jul 17, 5:51 PM)
Average85 °F74%29.98 "Hg
* Reported Jul 14 4:51 PM — Jul 29 4:51 PM, Victoria, Weather by CustomWeather, © 2014

Note: Actual official high and low records may vary slightly from our data, if they occured in-between our weather recording intervals... More about our weather records

Advertising

Victoria weather history for previous 24 hours

 ConditionsComfort  
Time TempWeatherWind HumidityBarometerVisibility
4:51 PM
Jul 29
100 °FBroken clouds.14 mph37%29.99 "Hg10 mi
3:51 PM99 °FSunny.10 mph37%30.00 "Hg10 mi
2:51 PM99 °FSunny.3 mph33%30.01 "Hg10 mi
1:51 PM97 °FSunny.5 mph33%30.04 "Hg10 mi
12:51 PM95 °FSunny.6 mph46%30.06 "Hg10 mi
11:51 AM91 °FSunny.3 mph54%30.09 "Hg7 mi
10:51 AM87 °FPassing clouds.7 mph65%30.10 "Hg10 mi
9:51 AM84 °FScattered clouds.5 mph74%30.10 "Hg10 mi
9:02 AM81 °FPassing clouds.No wind88%30.10 "Hg7 mi
8:51 AM80 °FFog.No wind90%30.09 "Hg6 mi
7:51 AM76 °FFog.No wind97%30.09 "Hg3 mi
7:04 AM75 °FFog.No wind94%30.08 "Hg3 mi
6:57 AM75 °FFog.No wind94%30.07 "Hg2 mi
5:51 AM76 °FFog.No wind94%30.05 "Hg5 mi
4:51 AM78 °FFog.No wind90%30.05 "Hg6 mi
3:51 AM79 °FClear.6 mph90%30.04 "Hg9 mi
2:51 AM79 °FClear.5 mph94%30.04 "Hg7 mi
1:51 AM80 °FClear.5 mph90%30.04 "Hg8 mi
12:51 AM82 °FClear.7 mph88%30.06 "Hg9 mi
11:51 PM
Jul 28
82 °FClear.7 mph88%30.05 "Hg9 mi
10:51 PM83 °FClear.10 mph85%30.04 "Hg9 mi
9:51 PM84 °FClear.12 mph80%30.04 "Hg10 mi
8:51 PM86 °FSunny.15 mph75%30.03 "Hg10 mi
7:51 PM90 °FSunny.16 mph56%30.02 "Hg10 mi
6:51 PM94 °FSunny.14 mph46%30.00 "Hg10 mi
Weather by CustomWeather, © 2014

See weather overviewHow to use our weather pages